Starlink 3234

operational
NORAD ID: 50815 Int'l Des: 2022-001 Owner: SPXS Country: US Constellation: starlink
LEOCIRCULAR

About Starlink 3234

Description loading...

Live Position

Loading 3D Globe...

Upcoming Passes

Altitude History

Altitude vs Time

uPlot chart will show altitude changes over time

Two-Line Element Set

1 50815U 22001N 25302.49586043 .00000858 00000-0 71968-4 0 9991
2 50815 53.2179 38.0718 0001224 93.1657 266.9476 15.08841867210602
Epoch: Oct 29, 2025 • Age: 6 hours

Current Status

Altitude 543.6 km
Velocity 7.59 km/s
Sub-Earth Point -13.22°S, 75.71°E
Launch Date Jan 6, 2022
Age 3.8 years
Type internet

Technical Details

Classification Payload
Mass 297.00 kg
Dry Mass 275.00 kg
Total Mass 297.00 kg
Length 0.20 m
Diameter 2.80 m
Span 9.00 m
Shape Box + pan
Manufacturer SPXS
Bus Type Starlink
Phase Status In Orbit
Owner/State SPXS/US

Large Constellations

Loading constellations...